Location: Unspecified
(33.9239°N, 118.0544°W)
Time: 00:50:25
(UTC-07:00)

Cosmos 1674 - Visible Passes

Search period start: 24 April 2014 00:00
Search period end: 04 May 2014 00:00
Orbit: 516 x 546 km, 82.5° (Epoch: 24 April)

Date Brightness Start Highest point End Pass type
(mag) Time Alt. Az. Time Alt. Az. Time Alt. Az.
24 Apr 6.0 04:48:33 10° ESE 04:50:04 12° E 04:51:34 10° ENE visible
25 Apr 6.1 04:38:47 10° ESE 04:39:55 11° E 04:41:03 10° ENE visible
26 Apr 6.2 04:29:16 10° E 04:29:46 10° E 04:30:17 10° ENE visible
29 Apr 3.0 05:30:54 10° SSW 05:34:43 50° W 05:38:32 10° N visible
30 Apr 2.9 05:20:38 10° SSW 05:24:29 54° W 05:28:19 10° N visible
01 May 2.8 05:10:23 10° SSW 05:14:15 58° W 05:18:06 10° N visible
02 May 2.7 05:00:06 10° SSW 05:03:59 63° W 05:07:51 10° N visible
03 May 2.7 04:50:28 14° SSW 04:53:43 69° W 04:57:36 10° N visible
